Weather in Castanhal

Brazil     1°17′09″S   47°54′49″W
temp.,
°C
wind,
m/s
gust,
m/s
humid.,
%
clouds,
%
prec.,
mm/h
press.,
hPa
HPBL,
m
23 april, fri
fri2300:00+22ese139978 0.0 101286
03:00+22ese139991 0.0 101181
06:00+22se119999 0.0 101125
09:00+27ese247525 0.0 1013660
12:00+29se127631 1.3 1012946
15:00+28nne118229 5.6 1009680
18:00+24ne2397100 6.9 100966
21:00+23ne129899 9.3 101263
24 april, sat
sat2400:00+23ne1399100 0.2 101191
03:00+22e129981 0.2 101070
06:00+22ese119961 0.8 101124
09:00+26e139014 1.4 1013378
12:00+29ene237597 2.4 10111069
15:00+28ne2490100 6.5 1009623
18:00+24ne2797100 7.7 1009181
21:00+24ne1598100 11.3 1012146
25 april, sun
sun2500:00+23e1399100 1.1 1011112
03:00+23e019997 1.1 101017
06:00+22e1199100 1.4 101126
09:00+24sse139680 3.5 1013225
12:00+28ene1183100 2.6 1011592
15:00+26nne1294100 6.1 1008186
18:00+25n1198100 1.8 100926
21:00+23nne119952 1.8 101246
26 april, mon
mon2600:00+23ne119943 0.0 101123
03:00+22e129927 0.1 100953
06:00+22se119929 0.0 101044
09:00+26ese138410 0.0 1012511
12:00+31e235720 0.2 10101626
15:00+32ese245222 0.6 10071967
18:00+25nne27935 0.5 1008206
21:00+23ne179614 0.5 1010181
27 april, tue
tue2700:00+22ene119957 0.1 101120
03:00+22e149963 0.2 1009116
06:00+22e139985 0.0 101091
09:00+28e247413 0.0 1012608
12:00+32e245113 0.0 10101763
15:00+32ese335015 0.0 10061903
18:00+25ne269352 1.3 1007132
21:00+23ne1698100 3.9 1010148